Regional Weather Roundup
Issued by NWS

Home | Current Version | Previous Version | Text Only | Print | Product List | Glossary On
Versions: 1 2 3 4 5 6 7 8 9 10 11 12 13 14 15 16 17 18 19 20 21 22 23 24 25 26 27 28 29 30 31 32 33 34 35 36 37 38 39 40 41 42 43 44 45 46 47 48 49 50
000
ASUS44 KFWD 192310
RWRTX
NORTH TEXAS HOURLY WEATHER ROUNDUP
NATIONAL WEATHER SERVICE FORT WORTH TX
ISSUED BY NWS SHREVEPORT LA
500 PM CST THU JAN 19 2017

NOTE: "FAIR" INDICATES FEW OR NO CLOUDS BELOW 12,000 FEET WITH NO
SIGNIFICANT WEATHER AND/OR OBSTRUCTIONS TO VISIBILITY.

TXZ118-119-200000-
DALLAS/FORT WORTH METROPLEX

CITY           SKY/WX    TMP DP  RH WIND       PRES   REMARKS
DFW AIRPORT    PTCLDY    66  53  63 S16       29.60F
DALLAS LOVE    PTCLDY    64  52  64 S15       29.62F
FTW MEACHAM    CLEAR     70  48  45 S13       29.59F
DAL-EXECUTIVE  CLEAR     63  53  70 S12G26    29.62F
FTW-ALLIANCE   PTCLDY    67  50  54 S15       29.59F
FTW-NAS-JRB    CLEAR     72  43  35 S16       29.60F
FTW-SPINKS     PTCLDY    68  52  56 S12       29.63F
ARLINGTON      CLEAR     65  52  62 SE15G22   29.62F
GRAND PRAIRIE  CLEAR     64  52  63 SE14G20   29.63F
ADDISON        CLEAR     64  57  77 S9G22     29.63S
$$

TXZ091>094-102>105-117-120-121-131>134-200000-
NORTH CENTRAL TEXAS

CITY           SKY/WX    TMP DP  RH WIND       PRES   REMARKS
SHRMAN/DENISON CLEAR     60  52  74 S16       29.63R
GAINESVILLE    CLEAR     61  49  65 SE16      29.61F
DECATUR        CLEAR     69  39  32 SW13      29.59F
DENTON         CLEAR     64  52  64 S17       29.59F
MCKINNEY       CLEAR     60  52  74 S15G24    29.63S
GREENVILLE     CLEAR     57  50  77 S13       29.67S
TERRELL        CLEAR     59  51  75 S13       29.67F
$$

TXZ083>090-098>101-113>116-127>130-139>142-154-155-200000-
WESTERN NORTH TEXAS

CITY           SKY/WX    TMP DP  RH WIND       PRES   REMARKS
WICHITA FALLS  PTCLDY    67  36  31 SW20G26   29.54S
ABILENE        SUNNY     67  37  33 SW15      29.62S
ABILENE-DYESS  SUNNY     68  28  22 SW15G23   29.61S
GRAHAM         CLEAR     70  37  30 SW14G24   29.57F
MINERAL WELLS  CLEAR     71  36  27 SW20      29.58F
STEPHENVILLE   CLEAR     71  35  26 SW12G22   29.65F
BROWNWOOD      SUNNY     70  37  30 SW15G28   29.65S
$$

TXZ143>147-156>162-174-175-200000-
CENTRAL TEXAS

CITY           SKY/WX    TMP DP  RH WIND       PRES   REMARKS
WACO           CLEAR     64  55  72 S13       29.67F
WACO-MCGREGOR  CLEAR     64  56  75 S15       29.67F
CORSICANA      CLEAR     62  53  72 S10       29.70F
TEMPLE         CLEAR     64  56  75 SE14      29.69S
KILLEEN-GRAY   CLEAR     71  42  34 SW13G21   29.67S
KILLEEN-SKYLRK CLEAR     71  53  52 S8        29.68S
FORT HOOD      CLEAR     73  44  34 SW12      29.64F
$$

TXZ095>097-106>112-122>126-135>138-148>153-164>167-200000-
EAST TEXAS

CITY           SKY/WX    TMP DP  RH WIND       PRES   REMARKS
PARIS          CLOUDY    55  50  82 S10       29.67F
MOUNT PLEASANT CLOUDY    57  53  88 S9        29.71S
GILMER         MOCLDY    55  51  83 S9        29.71S
TYLER          MOCLDY    57  52  83 S13       29.70F
LONGVIEW       MOCLDY    58  54  86 S9        29.72R
MARSHALL       CLOUDY    56  52  84 SW8       29.75R
PALESTINE      MOCLDY    58  55  89 S6        29.74S
JACKSONVILLE   CLOUDY    56  55  94 S8        29.74S
NACOGDOCHES    CLOUDY    59  55  88 W5        29.73R
LUFKIN         CLOUDY    61  57  87 S8        29.74S
$$

SUPPLEMENTAL OBSERVATIONS (CENTRAL)

CITY           SKY/WX    TMP DP  RH WIND       PRES   REMARKS
$$

SUPPLEMENTAL OBSERVATIONS (WEST)

CITY           SKY/WX    TMP DP  RH WIND       PRES   REMARKS
$$

SUPPLEMENTAL OBSERVATIONS (EAST)

CITY           SKY/WX    TMP DP  RH WIND       PRES   REMARKS
$$

SUPPLEMENTAL OBSERVATIONS ARE A COLLECTION OF AUTOMATED INSTRUMENTS
THAT ARE MAINTAINED BY A VARIETY OF FEDERAL AND STATE AGENCIES.
CERTAIN ELEMENTS...SUCH AS HUMIDITY VALUES AND SUSTAINED WIND
SPEEDS...MAY BE ESTIMATED.




USA.gov is the U.S. government's official web portal to all federal, state and local government web resources and services.